Hourly Data Report for June 12, 2004

TORONTO CITY
ONTARIO

43°40'00.000" N
79°24'00.000" W
112.50 m
6158355
71508
XTO

Download Data

Hourly Data (June 2004)
Hourly Data Report for June 12, 2004
TIME
LST
Temp Definition
°C
Dew Point Definition
°C
Rel Hum Definition
%
Precip. Amount Definition
mm

Wind Dir Definition
10's deg

Wind Spd Definition
km/h
Visibility Definition
km
Stn Press Definition
kPa
Hmdx Definition


Wind Chill Definition


Weather Definition


00:00 13.2 4.4 55   LegendMM LegendMM LegendMM 100.59     LegendNANA
01:00 12.2 4.3 58   LegendMM LegendMM LegendMM 100.61     LegendNANA
02:00 13.6 4.9 56   LegendMM LegendMM LegendMM 100.61     LegendNANA
03:00 13.0 5.1 59   LegendMM LegendMM LegendMM 100.59     LegendNANA
04:00 11.1 5.7 69   LegendMM LegendMM LegendMM 100.57     LegendNANA
05:00 10.8 6.2 73   LegendMM LegendMM LegendMM 100.64     LegendNANA
06:00 12.2 7.1 71   LegendMM LegendMM LegendMM 100.68     LegendNANA
07:00 14.8 7.6 62   LegendMM LegendMM LegendMM 100.73     LegendNANA
08:00 16.9 6.8 51   LegendMM LegendMM LegendMM 100.81     LegendNANA
09:00 18.7 4.6 39   LegendMM LegendMM LegendMM 100.86     LegendNANA
10:00 18.4 5.9 44   LegendMM LegendMM LegendMM 100.85     LegendNANA
11:00 18.9 4.7 39   LegendMM LegendMM LegendMM 100.83     LegendNANA
12:00 19.8 4.1 35   LegendMM LegendMM LegendMM 100.75     LegendNANA
13:00 20.4 4.9 36   LegendMM LegendMM LegendMM 100.70     LegendNANA
14:00 20.9 3.6 32   LegendMM LegendMM LegendMM 100.60     LegendNANA
15:00 20.8 0.4 26   LegendMM LegendMM LegendMM 100.55     LegendNANA
16:00 20.1 -0.6 25   LegendMM LegendMM LegendMM 100.54     LegendNANA
17:00 19.6 -2.1 23   LegendMM LegendMM LegendMM 100.52     LegendNANA
18:00 18.6 -2.4 24   LegendMM LegendMM LegendMM 100.51     LegendNANA
19:00 18.0 -1.1 27   LegendMM LegendMM LegendMM 100.51     LegendNANA
20:00 17.0 0.3 32   LegendMM LegendMM LegendMM 100.48     LegendNANA
21:00 16.5 0.7 34   LegendMM LegendMM LegendMM 100.53     LegendNANA
22:00 16.5 0.4 34   LegendMM LegendMM LegendMM 100.49     LegendNANA
23:00 16.4 3.4 42   LegendMM LegendMM LegendMM 100.51     LegendNANA

Notes on Data Quality.

Legend

  • E = Estimated
  • M = Missing
  • NA = Not Available*
  • [empty] = Indicates an unobserved value
Date modified: